This is the latest recevied weather packets stored in our database for station/object SP2FH-13. If no packets are shown the sender has not sent any weather packets the latest 10 day(s).
| Time | Temp. | Humidity | Pressure | Rain* | Wind** | Luminosity | Snow |
|---|---|---|---|---|---|---|---|
| 1778433855 | 17.78° C | 47% | 1000.4 hPa | - | - | 30 W/m² | - |
| 1778433554 | 17.78° C | 43% | 1000.4 hPa | - | - | 33 W/m² | - |
| 1778433253 | 17.78° C | 42% | 1000.5 hPa | - | - | 35 W/m² | - |
| 1778432952 | 17.78° C | 41% | 1000.4 hPa | - | - | 38 W/m² | - |
| 1778432651 | 18.33° C | 42% | 1000.5 hPa | - | - | 44 W/m² | - |
| 1778432350 | 18.33° C | 37% | 1000.5 hPa | - | - | 48 W/m² | - |
| 1778432049 | 18.33° C | 42% | 1000.6 hPa | - | - | 48 W/m² | - |
| 1778431748 | 18.33° C | 38% | 1000.6 hPa | - | - | 52 W/m² | - |
| 1778431446 | 18.33° C | 37% | 1000.7 hPa | - | - | 53 W/m² | - |
| 1778431145 | 18.33° C | 38% | 1000.8 hPa | - | - | 53 W/m² | - |
| 1778430845 | 18.33° C | 39% | 1000.9 hPa | - | - | 55 W/m² | - |
| 1778430543 | 18.33° C | 38% | 1000.9 hPa | - | - | 63 W/m² | - |
| 1778430241 | 18.89° C | 37% | 1001 hPa | - | - | 111 W/m² | - |
| 1778429940 | 18.89° C | 38% | 1000.9 hPa | - | - | 118 W/m² | - |
| 1778429639 | 18.89° C | 38% | 1001.1 hPa | - | - | 133 W/m² | - |
| 1778429339 | 18.89° C | 37% | 1001.1 hPa | - | - | 133 W/m² | - |
| 1778429037 | 18.89° C | 36% | 1001.2 hPa | - | - | 158 W/m² | - |
| 1778428735 | 18.89° C | 36% | 1001.2 hPa | - | - | 173 W/m² | - |
| 1778428433 | 19.44° C | 35% | 1001.3 hPa | - | - | 188 W/m² | - |
| 1778428132 | 19.44° C | 36% | 1001.3 hPa | - | - | 201 W/m² | - |
| 1778427832 | 19.44° C | 36% | 1001.3 hPa | - | - | 214 W/m² | - |
| 1778427530 | 19.44° C | 35% | 1001.4 hPa | - | - | 231 W/m² | - |
| 1778427229 | 20.56° C | 32% | 1001.5 hPa | - | - | 250 W/m² | - |
| 1778426928 | 20° C | 32% | 1001.5 hPa | - | - | 273 W/m² | - |
| 1778426626 | 19.44° C | 32% | 1001.6 hPa | - | - | 288 W/m² | - |
* Rain since midnight (hover to see other rain measurements)
** Current wind speed in m/s (hover to see current wind gust speed)